Year,Month,Day,Hour,Minute,Value (Times are PST for temperature in C)
2006,10,20,00,00,9.70
2006,10,20,00,01,9.70
2006,10,20,00,02,9.70
2006,10,20,00,03,9.70
2006,10,20,00,04,9.70
2006,10,20,00,05,9.70
2006,10,20,00,06,9.70
2006,10,20,00,07,9.70
2006,10,20,00,08,9.70
2006,10,20,00,09,9.70
2006,10,20,00,10,9.70
2006,10,20,00,11,9.70
2006,10,20,00,12,9.60
2006,10,20,01,02,8.90
2006,10,20,01,03,8.90
2006,10,20,01,04,8.80
2006,10,20,01,05,8.80
2006,10,20,01,06,8.80
2006,10,20,01,07,8.70
2006,10,20,01,08,8.70
2006,10,20,01,09,8.70
2006,10,20,01,10,8.70
2006,10,20,01,11,8.70
2006,10,20,01,12,8.70
2006,10,20,01,13,8.60
2006,10,20,01,14,8.60
2006,10,20,01,15,8.60
2006,10,20,01,16,8.60
2006,10,20,01,17,8.50
2006,10,20,01,18,8.50
2006,10,20,01,19,8.50
2006,10,20,01,20,8.50
2006,10,20,01,21,8.40
2006,10,20,01,22,8.40
2006,10,20,01,23,8.30
2006,10,20,01,24,8.30
2006,10,20,01,25,8.30
2006,10,20,01,26,8.20
2006,10,20,01,27,8.20
2006,10,20,01,28,8.20
2006,10,20,01,29,8.20
2006,10,20,01,30,8.20
2006,10,20,01,31,8.20
2006,10,20,01,32,8.10
2006,10,20,01,33,8.10
2006,10,20,01,34,8.10
2006,10,20,01,35,8.10
2006,10,20,01,36,8.00
2006,10,20,01,37,8.00
2006,10,20,01,38,8.00
2006,10,20,01,39,8.00
2006,10,20,01,40,8.00
2006,10,20,01,41,8.00
2006,10,20,01,42,7.90
2006,10,20,01,43,7.90
2006,10,20,01,44,7.90
2006,10,20,01,45,7.90
2006,10,20,01,46,7.90
2006,10,20,01,47,7.80
2006,10,20,01,48,7.80
2006,10,20,01,49,7.80
2006,10,20,01,50,7.80
2006,10,20,01,51,7.80
2006,10,20,01,52,7.80
2006,10,20,01,53,7.80
2006,10,20,01,54,7.80
2006,10,20,01,55,7.80
2006,10,20,01,56,7.70
2006,10,20,01,57,7.70
2006,10,20,01,58,7.70
2006,10,20,01,59,7.70
2006,10,20,02,00,7.60
2006,10,20,02,01,7.60
2006,10,20,02,02,7.60
2006,10,20,02,03,7.50
2006,10,20,02,04,7.50
2006,10,20,02,05,7.50
2006,10,20,02,06,7.50
2006,10,20,02,07,7.50
2006,10,20,02,08,7.40
2006,10,20,02,09,7.40
2006,10,20,02,10,7.40
2006,10,20,02,11,7.40
2006,10,20,02,12,7.40
2006,10,20,02,13,7.40
2006,10,20,02,14,7.40
2006,10,20,02,15,7.40
2006,10,20,02,16,7.30
2006,10,20,02,17,7.30
2006,10,20,02,18,7.30
2006,10,20,02,19,7.30
2006,10,20,02,20,7.30
2006,10,20,02,21,7.30
2006,10,20,02,22,7.30
2006,10,20,02,23,7.30
2006,10,20,02,24,7.30
2006,10,20,02,25,7.30
2006,10,20,02,26,7.20
2006,10,20,02,27,7.20
2006,10,20,02,28,7.20
2006,10,20,02,29,7.20
2006,10,20,02,30,7.20
2006,10,20,02,31,7.20
2006,10,20,02,32,7.20
2006,10,20,02,33,7.10
2006,10,20,02,34,7.10
2006,10,20,02,35,7.10
2006,10,20,02,36,7.10
2006,10,20,02,37,7.00
2006,10,20,02,38,7.00
2006,10,20,02,39,7.00
2006,10,20,02,40,7.00
2006,10,20,02,41,7.00
2006,10,20,02,42,7.00
2006,10,20,02,43,7.00
2006,10,20,02,44,7.00
2006,10,20,02,45,7.00
2006,10,20,02,46,7.00
2006,10,20,02,47,6.90
2006,10,20,02,48,6.90
2006,10,20,02,49,6.90
2006,10,20,02,50,6.80
2006,10,20,02,51,6.80
2006,10,20,02,52,6.80
2006,10,20,02,53,6.80
2006,10,20,02,54,6.80
2006,10,20,02,55,6.80
2006,10,20,02,56,6.80
2006,10,20,02,57,6.70
2006,10,20,02,58,6.70
2006,10,20,02,59,6.70
2006,10,20,03,00,6.70
2006,10,20,03,01,6.70
2006,10,20,03,02,6.70
2006,10,20,03,03,6.70
2006,10,20,03,04,6.70
2006,10,20,03,05,6.70
2006,10,20,03,06,6.80
2006,10,20,03,07,6.80
2006,10,20,03,08,6.80
2006,10,20,03,09,6.80
2006,10,20,03,10,6.80
2006,10,20,03,11,6.80
2006,10,20,03,12,6.80
2006,10,20,03,13,6.80
2006,10,20,03,14,6.80
2006,10,20,03,15,6.80
2006,10,20,03,16,6.80
2006,10,20,03,17,6.80
2006,10,20,03,18,6.80
2006,10,20,03,19,6.80
2006,10,20,03,20,6.80
2006,10,20,03,21,6.80
2006,10,20,03,22,6.80
2006,10,20,03,23,6.80
2006,10,20,03,24,6.80
2006,10,20,03,25,6.80
2006,10,20,03,26,6.80
2006,10,20,03,27,6.70
2006,10,20,03,28,6.70
2006,10,20,03,29,6.70
2006,10,20,03,30,6.70
2006,10,20,03,31,6.60
2006,10,20,03,32,6.60
2006,10,20,03,33,6.60
2006,10,20,03,34,6.60
2006,10,20,03,35,6.60
2006,10,20,03,36,6.60
2006,10,20,03,37,6.60
2006,10,20,03,38,6.60
2006,10,20,03,39,6.60
2006,10,20,03,40,6.60
2006,10,20,03,41,6.60
2006,10,20,03,42,6.60
2006,10,20,03,43,6.50
2006,10,20,03,44,6.40
2006,10,20,03,45,6.40
2006,10,20,03,46,6.50
2006,10,20,03,47,6.60
2006,10,20,03,48,6.60
2006,10,20,03,49,6.60
2006,10,20,03,50,6.60
2006,10,20,03,51,6.70
2006,10,20,03,52,6.60
2006,10,20,03,53,6.60
2006,10,20,03,54,6.60
2006,10,20,03,55,6.60
2006,10,20,03,56,6.60
2006,10,20,03,57,6.60
2006,10,20,03,58,6.60
2006,10,20,03,59,6.60
2006,10,20,04,00,6.60
2006,10,20,04,01,6.60
2006,10,20,04,02,6.60
2006,10,20,04,03,6.60
2006,10,20,04,04,6.60
2006,10,20,04,05,6.60
2006,10,20,04,06,6.70
2006,10,20,04,07,6.80
2006,10,20,04,08,6.90
2006,10,20,04,09,6.90
2006,10,20,04,10,7.00
2006,10,20,04,11,7.00
2006,10,20,04,12,7.00
2006,10,20,04,13,7.00
2006,10,20,04,14,6.90
2006,10,20,04,15,6.90
2006,10,20,04,16,6.90
2006,10,20,04,17,6.80
2006,10,20,04,18,6.80
2006,10,20,04,19,6.80
2006,10,20,04,20,6.70
2006,10,20,04,21,6.70
2006,10,20,04,22,6.70
2006,10,20,04,23,6.60
2006,10,20,04,24,6.60
2006,10,20,04,25,6.60
2006,10,20,04,26,6.60
2006,10,20,04,27,6.60
2006,10,20,04,28,6.50
2006,10,20,04,29,6.40
2006,10,20,04,30,6.40
2006,10,20,04,31,6.40
2006,10,20,04,32,6.40
2006,10,20,04,33,6.40
2006,10,20,04,34,6.40
2006,10,20,04,35,6.40
2006,10,20,04,36,6.40
2006,10,20,04,37,6.40
2006,10,20,04,38,6.40
2006,10,20,04,39,6.40
2006,10,20,04,40,6.40
2006,10,20,04,41,6.30
2006,10,20,04,42,6.30
2006,10,20,04,43,6.30
2006,10,20,04,44,6.30
2006,10,20,04,45,6.30
2006,10,20,04,46,6.30
2006,10,20,04,47,6.30
2006,10,20,04,48,6.30
2006,10,20,04,49,6.20
2006,10,20,04,50,6.20
2006,10,20,04,51,6.20
2006,10,20,04,52,6.20
2006,10,20,04,53,6.20
2006,10,20,04,54,6.20
2006,10,20,04,55,6.10
2006,10,20,04,56,6.10
2006,10,20,04,57,6.10
2006,10,20,04,58,6.10
2006,10,20,04,59,6.10
2006,10,20,05,00,6.10
2006,10,20,05,01,6.10
2006,10,20,05,02,6.20
2006,10,20,05,03,6.20
2006,10,20,05,04,6.20
2006,10,20,05,05,6.20
2006,10,20,05,06,6.20
2006,10,20,05,07,6.20
2006,10,20,05,08,6.20
2006,10,20,05,09,6.20
2006,10,20,05,10,6.20
2006,10,20,05,11,6.20
2006,10,20,05,12,6.20
2006,10,20,05,13,6.20
2006,10,20,05,14,6.10
2006,10,20,05,15,6.10
2006,10,20,05,16,6.00
2006,10,20,05,17,6.00
2006,10,20,05,18,6.00
2006,10,20,05,19,5.90
2006,10,20,05,20,5.90
2006,10,20,05,21,5.90
2006,10,20,05,22,5.90
2006,10,20,05,23,6.00
2006,10,20,05,24,6.00
2006,10,20,05,25,6.10
2006,10,20,05,26,6.20
2006,10,20,05,27,6.20
2006,10,20,05,28,6.30
2006,10,20,05,29,6.30
2006,10,20,05,30,6.30
2006,10,20,05,31,6.30
2006,10,20,05,32,6.30
2006,10,20,05,33,6.30
2006,10,20,05,34,6.20
2006,10,20,05,35,6.20
2006,10,20,05,36,6.20
2006,10,20,05,37,6.20
2006,10,20,05,38,6.20
2006,10,20,05,39,6.20
2006,10,20,05,40,6.20
2006,10,20,05,41,6.20
2006,10,20,05,42,6.20
2006,10,20,05,43,6.20
2006,10,20,05,44,6.20
2006,10,20,05,45,6.20
2006,10,20,05,46,6.30
2006,10,20,05,47,6.30
2006,10,20,05,48,6.20
2006,10,20,05,49,6.20
2006,10,20,05,50,6.20
2006,10,20,05,51,6.20
2006,10,20,05,52,6.20
2006,10,20,05,53,6.20
2006,10,20,05,54,6.20
2006,10,20,05,55,6.20
2006,10,20,05,56,6.20
2006,10,20,05,57,6.10
2006,10,20,05,58,6.10
2006,10,20,05,59,6.10
2006,10,20,06,00,6.10
2006,10,20,06,01,6.10
2006,10,20,06,02,6.10
2006,10,20,06,03,6.10
2006,10,20,06,04,6.10
2006,10,20,06,05,6.10
2006,10,20,06,06,6.10
2006,10,20,06,07,6.10
2006,10,20,06,08,6.10
2006,10,20,06,09,6.20
2006,10,20,06,10,6.20
2006,10,20,06,11,6.20
2006,10,20,06,12,6.20
2006,10,20,06,13,6.20
2006,10,20,06,14,6.20
2006,10,20,06,15,6.20
2006,10,20,06,16,6.20
2006,10,20,06,17,6.20
2006,10,20,06,18,6.30
2006,10,20,06,19,6.30
2006,10,20,06,20,6.30
2006,10,20,06,21,6.30
2006,10,20,06,22,6.30
2006,10,20,06,23,6.30
2006,10,20,06,24,6.30
2006,10,20,06,25,6.30
2006,10,20,06,26,6.30
2006,10,20,06,27,6.30
2006,10,20,06,28,6.30
2006,10,20,06,29,6.30
2006,10,20,06,30,6.20
2006,10,20,06,31,6.20
2006,10,20,06,32,6.20
2006,10,20,06,33,6.20
2006,10,20,06,34,6.20
2006,10,20,06,35,6.20
2006,10,20,06,36,6.10
2006,10,20,06,37,6.10
2006,10,20,06,38,6.00
2006,10,20,06,39,6.00
2006,10,20,06,40,6.00
2006,10,20,06,41,6.00
2006,10,20,06,42,6.00
2006,10,20,06,43,6.00
2006,10,20,06,44,6.00
2006,10,20,06,45,5.90
2006,10,20,06,46,5.90
2006,10,20,06,47,5.90
2006,10,20,06,48,5.90
2006,10,20,06,49,5.80
2006,10,20,06,50,5.80
2006,10,20,06,51,5.80
2006,10,20,06,52,5.80
2006,10,20,06,53,5.80
2006,10,20,06,54,5.70
2006,10,20,06,55,5.70
2006,10,20,06,56,5.70
2006,10,20,06,57,5.70
2006,10,20,06,58,5.70
2006,10,20,06,59,5.70
2006,10,20,07,00,5.70
2006,10,20,07,01,5.70
2006,10,20,07,02,5.70
2006,10,20,07,03,5.70
2006,10,20,07,04,5.70
2006,10,20,07,05,5.70
2006,10,20,07,06,5.70
2006,10,20,07,07,5.70
2006,10,20,07,08,5.70
2006,10,20,07,09,5.80
2006,10,20,07,10,5.80
2006,10,20,07,11,5.80
2006,10,20,07,12,5.80
2006,10,20,07,13,5.80
2006,10,20,07,14,5.90
2006,10,20,07,15,5.90
2006,10,20,07,16,5.90
2006,10,20,07,17,5.90
2006,10,20,07,18,5.90
2006,10,20,07,19,5.80
2006,10,20,07,20,5.80
2006,10,20,07,21,5.80
2006,10,20,07,22,5.80
2006,10,20,07,23,5.80
2006,10,20,07,24,5.70
2006,10,20,07,25,5.70
2006,10,20,07,26,5.70
2006,10,20,07,27,5.70
2006,10,20,07,28,5.70
2006,10,20,07,29,5.70
2006,10,20,07,30,5.70
2006,10,20,07,31,5.70
2006,10,20,07,32,5.70
2006,10,20,07,33,5.70
2006,10,20,07,34,5.70
2006,10,20,07,35,5.70
2006,10,20,07,36,5.70
2006,10,20,07,37,5.70
2006,10,20,07,38,5.70
2006,10,20,07,39,5.70
2006,10,20,07,40,5.70
2006,10,20,07,41,5.70
2006,10,20,07,42,5.70
2006,10,20,07,43,5.60
2006,10,20,07,44,5.60
2006,10,20,07,45,5.60
2006,10,20,07,46,5.60
2006,10,20,07,47,5.60
2006,10,20,07,48,5.60
2006,10,20,07,49,5.60
2006,10,20,07,50,5.60
2006,10,20,07,51,5.70
2006,10,20,07,52,5.70
2006,10,20,07,53,5.70
2006,10,20,07,54,5.70
2006,10,20,07,55,5.70
2006,10,20,07,56,5.70
2006,10,20,07,57,5.70
2006,10,20,07,58,5.70
2006,10,20,07,59,5.90
2006,10,20,08,00,5.90
2006,10,20,08,01,6.00
2006,10,20,08,02,6.00
2006,10,20,08,03,6.00
2006,10,20,08,04,6.00
2006,10,20,08,05,6.00
2006,10,20,08,06,6.00
2006,10,20,08,07,6.00
2006,10,20,08,08,6.10
2006,10,20,08,09,6.10
2006,10,20,08,10,6.10
2006,10,20,08,11,6.10
2006,10,20,08,12,6.10
2006,10,20,08,13,6.10
2006,10,20,08,14,6.10
2006,10,20,08,15,6.20
2006,10,20,08,16,6.20
2006,10,20,08,17,6.20
2006,10,20,08,18,6.30
2006,10,20,08,19,6.50
2006,10,20,08,20,6.60
2006,10,20,08,21,6.70
2006,10,20,08,22,6.80
2006,10,20,08,23,6.80
2006,10,20,08,24,6.80
2006,10,20,08,25,6.80
2006,10,20,08,26,6.80
2006,10,20,08,27,6.80
2006,10,20,08,28,6.90
2006,10,20,08,29,6.90
2006,10,20,08,30,6.90
2006,10,20,08,31,6.90
2006,10,20,08,32,7.00
2006,10,20,08,33,7.00
2006,10,20,08,34,7.00
2006,10,20,08,35,7.00
2006,10,20,08,36,7.10
2006,10,20,08,37,7.30
2006,10,20,08,38,7.30
2006,10,20,08,39,7.30
2006,10,20,08,40,7.30
2006,10,20,08,41,7.30
2006,10,20,08,42,7.40
2006,10,20,08,43,7.40
2006,10,20,08,44,7.40
2006,10,20,08,45,7.50
2006,10,20,08,46,7.50
2006,10,20,08,47,7.50
2006,10,20,08,48,7.50
2006,10,20,08,49,7.50
2006,10,20,08,50,7.50
2006,10,20,08,51,7.50
2006,10,20,08,52,7.50
2006,10,20,08,53,7.60
2006,10,20,08,54,7.60
2006,10,20,08,55,7.60
2006,10,20,08,56,7.70
2006,10,20,08,57,7.80
2006,10,20,08,58,7.80
2006,10,20,08,59,7.90
2006,10,20,09,00,7.90
2006,10,20,09,01,7.90
2006,10,20,09,02,7.90
2006,10,20,09,03,8.00
2006,10,20,09,04,8.00
2006,10,20,09,05,8.00
2006,10,20,09,06,8.10
2006,10,20,09,07,8.30
2006,10,20,09,08,8.40
2006,10,20,09,09,8.50
2006,10,20,09,10,8.60
2006,10,20,09,11,8.70
2006,10,20,09,12,8.80
2006,10,20,09,13,8.90
2006,10,20,09,14,8.90
2006,10,20,09,15,9.00
2006,10,20,09,16,9.00
2006,10,20,09,17,9.10
2006,10,20,09,18,9.20
2006,10,20,09,19,9.20
2006,10,20,09,20,9.20
2006,10,20,09,21,9.30
2006,10,20,09,22,9.30
2006,10,20,09,23,9.40
2006,10,20,09,24,9.40
2006,10,20,09,25,9.50
2006,10,20,09,26,9.40
2006,10,20,09,27,9.40
2006,10,20,09,28,9.30
2006,10,20,09,29,9.30
2006,10,20,09,30,9.20
2006,10,20,09,31,9.20
2006,10,20,09,32,9.20
2006,10,20,09,33,9.20
2006,10,20,09,34,9.20
2006,10,20,09,35,9.20
2006,10,20,09,36,9.20
2006,10,20,09,37,9.20
2006,10,20,09,38,9.20
2006,10,20,09,39,9.20
2006,10,20,09,40,9.20
2006,10,20,09,41,9.20
2006,10,20,09,42,9.20
2006,10,20,09,43,9.20
2006,10,20,09,44,9.20
2006,10,20,09,45,9.20
2006,10,20,09,46,9.20
2006,10,20,09,47,9.20
2006,10,20,09,48,9.20
2006,10,20,09,49,9.20
2006,10,20,09,50,9.30
2006,10,20,09,51,9.30
2006,10,20,09,52,9.30
2006,10,20,09,53,9.30
2006,10,20,09,54,9.30
2006,10,20,09,55,9.40
2006,10,20,09,56,9.40
2006,10,20,09,57,9.40
2006,10,20,09,58,9.40
2006,10,20,09,59,9.40
2006,10,20,10,00,9.50
2006,10,20,10,01,9.50
2006,10,20,10,02,9.50
2006,10,20,10,03,9.60
2006,10,20,10,04,9.70
2006,10,20,10,05,9.70
2006,10,20,10,06,9.70
2006,10,20,10,07,9.80
2006,10,20,10,08,9.80
2006,10,20,10,09,9.90
2006,10,20,10,10,10.00
2006,10,20,10,11,10.10
2006,10,20,10,12,10.20
2006,10,20,10,13,10.20
2006,10,20,10,14,10.30
2006,10,20,10,15,10.30
2006,10,20,10,16,10.40
2006,10,20,10,17,10.40
2006,10,20,10,18,10.40
2006,10,20,10,19,10.40
2006,10,20,10,20,10.40
2006,10,20,10,21,10.60
2006,10,20,10,22,10.60
2006,10,20,10,23,10.60
2006,10,20,10,24,10.60
2006,10,20,10,25,10.60
2006,10,20,10,26,10.60
2006,10,20,10,27,10.60
2006,10,20,10,28,10.60
2006,10,20,10,29,10.60
2006,10,20,10,30,10.60
2006,10,20,10,31,10.60
2006,10,20,10,32,10.60
2006,10,20,10,33,10.60
2006,10,20,10,34,10.60
2006,10,20,10,35,10.60
2006,10,20,10,36,10.50
2006,10,20,10,37,10.40
2006,10,20,10,38,10.40
2006,10,20,10,39,10.40
2006,10,20,10,40,10.40
2006,10,20,10,41,10.40
2006,10,20,10,42,10.40
2006,10,20,10,43,10.40
2006,10,20,10,44,10.40
2006,10,20,10,45,10.40
2006,10,20,10,46,10.40
2006,10,20,10,47,10.40
2006,10,20,10,48,10.40
2006,10,20,10,49,10.50
2006,10,20,10,50,10.60
2006,10,20,10,51,10.60
2006,10,20,10,52,10.60
2006,10,20,10,53,10.60
2006,10,20,10,54,10.60
2006,10,20,10,55,10.60
2006,10,20,10,56,10.60
2006,10,20,10,57,10.60
2006,10,20,10,58,10.60
2006,10,20,10,59,10.60
2006,10,20,11,00,10.70
2006,10,20,11,01,10.70
2006,10,20,11,02,10.70
2006,10,20,11,03,10.70
2006,10,20,11,04,10.70
2006,10,20,11,05,10.70
2006,10,20,11,06,10.70
2006,10,20,11,07,10.80
2006,10,20,11,08,10.80
2006,10,20,11,09,10.80
2006,10,20,11,10,10.80
2006,10,20,11,11,10.80
2006,10,20,11,12,10.90
2006,10,20,11,13,10.90
2006,10,20,11,14,10.90
2006,10,20,11,15,10.90
2006,10,20,11,16,10.90
2006,10,20,11,17,10.90
2006,10,20,11,18,10.90
2006,10,20,11,19,10.90
2006,10,20,11,20,10.90
2006,10,20,11,21,10.90
2006,10,20,11,22,10.90
2006,10,20,11,23,10.90
2006,10,20,11,24,10.90
2006,10,20,11,25,11.00
2006,10,20,11,26,11.00
2006,10,20,11,27,11.10
2006,10,20,11,28,11.10
2006,10,20,11,29,11.10
2006,10,20,11,30,11.10
2006,10,20,11,31,11.10
2006,10,20,11,32,11.10
2006,10,20,11,33,11.10
2006,10,20,11,34,11.10
2006,10,20,11,35,11.10
2006,10,20,11,36,11.10
2006,10,20,11,37,11.10
2006,10,20,11,38,11.10
2006,10,20,11,39,11.10
2006,10,20,11,40,11.10
2006,10,20,11,41,11.10
2006,10,20,11,42,11.10
2006,10,20,11,43,11.00
2006,10,20,11,44,10.90
2006,10,20,11,45,10.90
2006,10,20,11,46,10.90
2006,10,20,11,47,10.90
2006,10,20,11,48,10.90
2006,10,20,11,49,10.80
2006,10,20,11,50,10.80
2006,10,20,11,51,10.80
2006,10,20,11,52,10.80
2006,10,20,11,53,10.80
2006,10,20,11,54,10.80
2006,10,20,11,55,10.80
2006,10,20,11,56,10.80
2006,10,20,11,57,10.80
2006,10,20,11,58,10.80
2006,10,20,11,59,10.80
2006,10,20,12,00,10.80
2006,10,20,12,01,10.90
2006,10,20,12,02,10.90
2006,10,20,12,03,10.90
2006,10,20,12,04,10.90
2006,10,20,12,05,10.90
2006,10,20,12,06,11.10
2006,10,20,12,07,11.10
2006,10,20,12,08,11.10
2006,10,20,12,09,11.10
2006,10,20,12,10,11.10
2006,10,20,12,11,11.20
2006,10,20,12,12,11.20
2006,10,20,12,13,11.30
2006,10,20,12,14,11.30
2006,10,20,12,15,11.40
2006,10,20,12,16,11.40
2006,10,20,12,17,11.50
2006,10,20,12,18,11.60
2006,10,20,12,19,11.60
2006,10,20,12,20,11.70
2006,10,20,12,21,11.80
2006,10,20,12,22,11.80
2006,10,20,12,23,11.90
2006,10,20,12,24,11.90
2006,10,20,12,25,12.00
2006,10,20,12,26,12.10
2006,10,20,12,27,12.10
2006,10,20,12,28,12.20
2006,10,20,12,29,12.30
2006,10,20,12,30,12.30
2006,10,20,12,31,12.30
2006,10,20,12,32,12.30
2006,10,20,12,33,12.40
2006,10,20,12,34,12.40
2006,10,20,12,35,12.30
2006,10,20,12,36,12.30
2006,10,20,12,37,12.30
2006,10,20,12,38,12.30
2006,10,20,12,39,12.40
2006,10,20,12,40,12.50
2006,10,20,12,41,12.50
2006,10,20,12,42,12.60
2006,10,20,12,43,12.70
2006,10,20,12,44,12.80
2006,10,20,12,45,12.80
2006,10,20,12,46,13.00
2006,10,20,12,47,13.00
2006,10,20,12,48,13.10
2006,10,20,12,49,13.10
2006,10,20,12,50,13.20
2006,10,20,12,51,13.20
2006,10,20,12,52,13.10
2006,10,20,12,53,13.10
2006,10,20,12,54,13.10
2006,10,20,12,55,13.00
2006,10,20,12,56,13.00
2006,10,20,12,57,13.00
2006,10,20,12,58,13.00
2006,10,20,12,59,12.90
2006,10,20,13,00,12.90
2006,10,20,13,01,12.90
2006,10,20,13,02,12.80
2006,10,20,13,03,12.70
2006,10,20,13,04,12.70
2006,10,20,13,05,12.70
2006,10,20,13,06,12.70
2006,10,20,13,07,12.70
2006,10,20,13,08,12.70
2006,10,20,13,09,12.70
2006,10,20,13,10,12.70
2006,10,20,13,11,12.70
2006,10,20,13,12,12.70
2006,10,20,13,13,12.80
2006,10,20,13,14,12.80
2006,10,20,13,15,12.80
2006,10,20,13,16,12.80
2006,10,20,13,17,12.80
2006,10,20,13,18,12.80
2006,10,20,13,19,12.80
2006,10,20,13,20,12.80
2006,10,20,13,21,12.80
2006,10,20,13,22,12.80
2006,10,20,13,23,12.90
2006,10,20,13,24,12.90
2006,10,20,13,25,13.00
2006,10,20,13,26,13.10
2006,10,20,13,27,13.20
2006,10,20,13,28,13.30
2006,10,20,13,29,13.30
2006,10,20,13,30,13.50
2006,10,20,13,31,13.50
2006,10,20,13,32,13.60
2006,10,20,13,33,13.60
2006,10,20,13,34,13.60
2006,10,20,13,35,13.60
2006,10,20,13,36,13.50
2006,10,20,13,37,13.50
2006,10,20,13,38,13.40
2006,10,20,13,39,13.40
2006,10,20,13,40,13.40
2006,10,20,13,41,13.40
2006,10,20,13,42,13.40
2006,10,20,13,43,13.40
2006,10,20,13,44,13.50
2006,10,20,13,45,13.50
2006,10,20,13,46,13.50
2006,10,20,13,47,13.50
2006,10,20,13,48,13.40
2006,10,20,13,49,13.40
2006,10,20,13,50,13.40
2006,10,20,13,51,13.30
2006,10,20,13,52,13.40
2006,10,20,13,53,13.50
2006,10,20,13,54,13.50
2006,10,20,13,55,13.50
2006,10,20,13,56,13.40
2006,10,20,13,57,13.40
2006,10,20,13,58,13.40
2006,10,20,13,59,13.40
2006,10,20,14,00,13.40
2006,10,20,14,01,13.40
2006,10,20,14,02,13.30
2006,10,20,14,03,13.20
2006,10,20,14,04,13.10
2006,10,20,14,05,12.90
2006,10,20,14,06,12.80
2006,10,20,14,07,12.70
2006,10,20,14,08,12.60
2006,10,20,14,09,12.60
2006,10,20,14,10,12.50
2006,10,20,14,11,12.50
2006,10,20,14,12,12.40
2006,10,20,14,13,12.40
2006,10,20,14,14,12.40
2006,10,20,14,15,12.30
2006,10,20,14,16,12.30
2006,10,20,14,17,12.30
2006,10,20,14,18,12.30
2006,10,20,14,19,12.40
2006,10,20,14,20,12.40
2006,10,20,14,21,12.50
2006,10,20,14,22,12.60
2006,10,20,14,23,12.70
2006,10,20,14,24,12.80
2006,10,20,14,25,12.80
2006,10,20,14,26,12.80
2006,10,20,14,27,12.90
2006,10,20,14,28,13.00
2006,10,20,14,29,13.00
2006,10,20,14,30,13.10
2006,10,20,14,31,13.10
2006,10,20,14,32,13.10
2006,10,20,14,33,13.00
2006,10,20,14,34,12.90
2006,10,20,14,35,12.90
2006,10,20,14,36,12.80
2006,10,20,14,37,12.80
2006,10,20,14,38,12.80
2006,10,20,14,39,12.80
2006,10,20,14,40,12.80
2006,10,20,14,41,12.90
2006,10,20,14,42,13.00
2006,10,20,14,43,13.00
2006,10,20,14,44,13.00
2006,10,20,14,45,12.90
2006,10,20,14,46,12.90
2006,10,20,14,47,12.80
2006,10,20,14,48,12.80
2006,10,20,14,49,12.80
2006,10,20,14,50,12.80
2006,10,20,14,51,12.80
2006,10,20,14,52,12.80
2006,10,20,14,53,12.80
2006,10,20,14,54,12.80
2006,10,20,14,55,12.80
2006,10,20,14,56,12.80
2006,10,20,14,57,12.80
2006,10,20,14,58,12.80
2006,10,20,14,59,12.80
2006,10,20,15,00,12.90
2006,10,20,15,01,12.90
2006,10,20,15,02,12.90
2006,10,20,15,03,12.90
2006,10,20,15,04,13.00
2006,10,20,15,05,13.00
2006,10,20,15,06,13.10
2006,10,20,15,07,13.20
2006,10,20,15,08,13.30
2006,10,20,15,09,13.30
2006,10,20,15,10,13.30
2006,10,20,15,11,13.40
2006,10,20,15,12,13.40
2006,10,20,15,13,13.30
2006,10,20,15,14,13.30
2006,10,20,15,15,13.20
2006,10,20,15,16,13.10
2006,10,20,15,17,13.10
2006,10,20,15,18,13.10
2006,10,20,15,19,13.00
2006,10,20,15,20,13.00
2006,10,20,15,21,13.00
2006,10,20,15,22,12.90
2006,10,20,15,23,12.90
2006,10,20,15,24,12.90
2006,10,20,15,25,12.90
2006,10,20,15,26,12.90
2006,10,20,15,27,12.90
2006,10,20,15,28,12.90
2006,10,20,15,29,12.90
2006,10,20,15,30,12.80
2006,10,20,15,31,12.80
2006,10,20,15,32,12.80
2006,10,20,15,33,12.80
2006,10,20,15,34,12.80
2006,10,20,15,35,12.80
2006,10,20,15,36,12.80
2006,10,20,15,37,12.80
2006,10,20,15,38,12.80
2006,10,20,15,39,12.80
2006,10,20,15,40,12.70
2006,10,20,15,41,12.60
2006,10,20,15,42,12.50
2006,10,20,15,43,12.50
2006,10,20,15,44,12.40
2006,10,20,15,45,12.40
2006,10,20,15,46,12.40
2006,10,20,15,47,12.40
2006,10,20,15,48,12.30
2006,10,20,15,49,12.30
2006,10,20,15,50,12.30
2006,10,20,15,51,12.40
2006,10,20,15,52,12.50
2006,10,20,15,53,12.50
2006,10,20,15,54,12.60
2006,10,20,15,55,12.70
2006,10,20,15,56,12.70
2006,10,20,15,57,12.70
2006,10,20,15,58,12.80
2006,10,20,15,59,12.80
2006,10,20,16,00,12.80
2006,10,20,16,01,12.80
2006,10,20,16,02,12.80
2006,10,20,16,03,12.70
2006,10,20,16,04,12.70
2006,10,20,16,05,12.70
2006,10,20,16,06,12.60
2006,10,20,16,07,12.60
2006,10,20,16,08,12.60
2006,10,20,16,09,12.60
2006,10,20,16,10,12.50
2006,10,20,16,11,12.50
2006,10,20,16,12,12.50
2006,10,20,16,13,12.50
2006,10,20,16,14,12.60
2006,10,20,16,15,12.60
2006,10,20,16,16,12.50
2006,10,20,16,17,12.50
2006,10,20,16,18,12.50
2006,10,20,16,19,12.50
2006,10,20,16,20,12.60
2006,10,20,16,21,12.60
2006,10,20,16,22,12.60
2006,10,20,16,23,12.50
2006,10,20,16,24,12.50
2006,10,20,16,25,12.40
2006,10,20,16,26,12.40
2006,10,20,16,27,12.30
2006,10,20,16,28,12.30
2006,10,20,16,29,12.20
2006,10,20,16,30,12.20
2006,10,20,16,31,12.10
2006,10,20,16,32,12.10
2006,10,20,16,33,12.10
2006,10,20,16,34,12.10
2006,10,20,16,35,12.10
2006,10,20,16,36,12.10
2006,10,20,16,37,12.10
2006,10,20,16,38,12.10
2006,10,20,16,39,12.10
2006,10,20,16,40,12.10
2006,10,20,16,41,12.10
2006,10,20,16,42,12.10
2006,10,20,16,43,12.10
2006,10,20,16,44,12.00
2006,10,20,16,45,12.00
2006,10,20,16,46,12.00
2006,10,20,16,47,11.90
2006,10,20,16,48,11.90
2006,10,20,16,49,11.80
2006,10,20,16,50,11.80
2006,10,20,16,51,11.80
2006,10,20,16,52,11.80
2006,10,20,16,53,11.80
2006,10,20,16,54,11.80
2006,10,20,16,55,11.70
2006,10,20,16,56,11.70
2006,10,20,16,57,11.60
2006,10,20,16,58,11.60
2006,10,20,16,59,11.60
2006,10,20,17,00,11.60
2006,10,20,17,01,11.60
2006,10,20,17,02,11.60
2006,10,20,17,03,11.60
2006,10,20,17,04,11.60
2006,10,20,17,05,11.60
2006,10,20,17,06,11.60
2006,10,20,17,07,11.60
2006,10,20,17,08,11.60
2006,10,20,17,09,11.60
2006,10,20,17,10,11.50
2006,10,20,17,11,11.40
2006,10,20,17,12,11.40
2006,10,20,17,13,11.40
2006,10,20,17,14,11.40
2006,10,20,17,15,11.40
2006,10,20,17,16,11.40
2006,10,20,17,17,11.40
2006,10,20,17,18,11.40
2006,10,20,17,19,11.40
2006,10,20,17,20,11.40
2006,10,20,17,21,11.40
2006,10,20,17,22,11.30
2006,10,20,17,23,11.30
2006,10,20,17,24,11.30
2006,10,20,17,25,11.20
2006,10,20,17,26,11.20
2006,10,20,17,27,11.20
2006,10,20,17,28,11.20
2006,10,20,17,29,11.20
2006,10,20,17,30,11.20
2006,10,20,17,31,11.20
2006,10,20,17,32,11.20
2006,10,20,17,33,11.20
2006,10,20,17,34,11.10
2006,10,20,17,35,11.10
2006,10,20,17,36,11.10
2006,10,20,17,37,11.10
2006,10,20,17,38,11.10
2006,10,20,17,39,11.10
2006,10,20,17,40,11.10
2006,10,20,17,41,11.10
2006,10,20,17,42,11.10
2006,10,20,17,43,11.10
2006,10,20,17,44,11.10
2006,10,20,17,45,10.90
2006,10,20,17,46,10.90
2006,10,20,17,47,10.90
2006,10,20,17,48,10.90
2006,10,20,17,49,10.90
2006,10,20,17,50,10.90
2006,10,20,17,51,10.90
2006,10,20,17,52,10.90
2006,10,20,17,53,10.80
2006,10,20,17,54,10.80
2006,10,20,17,55,10.80
2006,10,20,17,56,10.70
2006,10,20,17,57,10.70
2006,10,20,17,58,10.70
2006,10,20,17,59,10.60
2006,10,20,18,00,10.60
2006,10,20,18,01,10.60
2006,10,20,18,02,10.50
2006,10,20,18,03,10.40
2006,10,20,18,04,10.40
2006,10,20,18,05,10.40
2006,10,20,18,06,10.40
2006,10,20,18,07,10.30
2006,10,20,18,08,10.30
2006,10,20,18,09,10.30
2006,10,20,18,10,10.20
2006,10,20,18,11,10.20
2006,10,20,18,12,10.20
2006,10,20,18,13,10.20
2006,10,20,18,14,10.10
2006,10,20,18,15,10.10
2006,10,20,18,16,10.10
2006,10,20,18,17,10.00
2006,10,20,18,18,9.90
2006,10,20,18,19,9.90
2006,10,20,18,20,9.90
2006,10,20,18,21,9.90
2006,10,20,18,22,9.90
2006,10,20,18,23,9.80
2006,10,20,18,24,9.80
2006,10,20,18,25,9.80
2006,10,20,18,26,9.70
2006,10,20,18,27,9.70
2006,10,20,18,28,9.70
2006,10,20,18,29,9.70
2006,10,20,18,30,9.70
2006,10,20,18,31,9.70
2006,10,20,18,32,9.60
2006,10,20,18,33,9.60